STARLINK-32890, 62896

Orbit data source: Space-Track

STARLINK-32890, 62896 is a payload satellite owned by SpaceX/Seattle (US) in LEO that was launched on Tue, 04 Feb 2025 UTC via an FALCON 9 launch vehicle from the Air Force Eastern Test Range (AFETR). Payload-class satellites include a variety of spacecraft equipped with specific instruments for various scientific and technological missions. These include communications satellites like Starlink; space stations such as the ISS; scientific satellites like the Hubble; Earth observation satellites from companies like Planet Labs, Umbra, and HawkEye 360; GPS; miniature CubeSats for education and research; and military/defense satellites.

Loading next visibility...
Identifier
62896, 2025-024T
Orbit
LEO
Country
Flag of USUS
Related business
Manufacturer
SpaceX/Seattle
Mission
Operational Commercial Communications
Bus & Motor
STARLINK V2M, Unknown motor
Mass
730 kg wet, ~700 kg dry
Launch date (UTC)
Icon of a cake. It is the launch day of the satellite!2025-02-04 (1 year ago)
Launch vehicle
FALCON 9
Launch site
Air Force Eastern Test Range (AFETR)
Object type
Payload
Rocket body
Debris
Shape & HBR
Box + 2 Pan, 17.7 m
Radar Cross Section
33.884 m², Large (>1 m²)

Expand to show TLE details & history
Last TLE update: 10 hours ago

TLE from 10 hours ago
0 STARLINK-32890
1 62896U 25024T   26035.35523353  .00026248  00000-0  95979-3 0  9993
2 62896  42.9998 153.1171 0002505 282.2355  77.8216 15.27583900 57173
Epoch: 2026-02-04T08:31Z
TLE epoch observation values (Epoch: 2026-02-04T08:31:32.176Z)
Latitude
-0.00004°
Longitude
-109.29002°
Altitude
482.451 km
Speed
7.626 km/s
True Right ascension
10h 12m 28s
True Declination
0° 00' 00"
Sunlit
Object was in full shadow at epoch
Visualization orbit readout
Latitude
Unknown
Longitude
Unknown
Altitude
Unknown
Speed
Unknown
Apparent Right ascension
Unknown
Apparent Declination
Unknown
Sunlit
N/A
Visualization observer readout
Local Sidereal Time
20:15:47
Azimuth
Unknown
Elevation
Unknown
Doppler factor
Unknown
Orbital elements
Apogee altitude
486.702 km
Perigee altitude
483.263 km
Semi-major axis
6,863.12 km
Eccentricity
0.00025
Inclination
42.9998°
RAAN
153.1171°
Arg. of periapsis
282.2355°
True anomaly
77.84966°
Mean anomaly
77.8216°
Eccentric anomaly
77.83563°
Mean motion
3.81734 °/min
Orbital period
94.31 mins
BSTAR
0.00095979
Loading maneuver chart data...
Computing Atmospheric mass density...
Loading historical data...
Loading historical data...
Loading historical data...
Loading historical data...
Loading historical data...
Loading historical data...
Loading historical data...

Documentation

Showing up to 5 results
|